Location: Lhota
(50.0887°N, 14.0116°E)
Time: 06:41:14
(UTC+00:00)

Cosmos 1933 - Pass Details

Date: 19 May 2025
Orbit: 516 x 524 km, 82.5° (Epoch: 14 June)

Event Time Altitude Azimuth Distance (km) Brightness Sun altitude
Rises 19:57:02 0° 194° (SSW) 2,643 6.5 -9.1°
Reaches altitude 10° 19:59:10 10° 197° (SSW) 1,758 5.6 -9.3°
Maximum altitude 20:03:01 70° 281° (WNW) 562 3.5 -9.7°
Drops below altitude 10° 20:06:53 10° 6° (N) 1,768 6.6 -10.2°
Sets 20:09:03 0° 9° (N) 2,660 7.5 -10.4°
